Location: Elaine Barite Prospect
(34.1431°N, 106.7922°W)
Time: 12:44:16
(UTC+00:00)

SL-24 R/B - Pass Details

Date: 13 December 2025
Orbit: 501 x 978 km, 97.4° (Epoch: 14 January)

Event Time Altitude Azimuth Distance (km) Brightness Sun altitude
Rises 12:18:32 0° 9° (N) 3,229 7.7 -21.3°
Reaches altitude 10° 12:21:00 10° 7° (N) 2,222 6.8 -20.8°
Maximum altitude 12:25:48 73° 284° (WNW) 686 4.0 -19.8°
Drops below altitude 10° 12:29:58 10° 200° (SSW) 1,928 6.5 -19.0°
Sets 12:31:59 0° 198° (SSW) 2,767 7.4 -18.6°
